Location: Eenumerhoogte
(53.3420°N, 6.7843°E)
Time: 07:41:56
(UTC+00:00)

Cosmos 1726 Rocket - Pass Details

Date: 15 May 2026
Orbit: 555 x 661 km, 82.5° (Epoch: 5 June)

Event Time Altitude Azimuth Distance (km) Brightness Sun altitude
Exits shadow 21:25:49 18° 174° (S) 1,392 4.8 -12.9°
Maximum altitude 21:28:40 63° 97° (E) 627 3.4 -13.1°
Drops below altitude 10° 21:32:42 10° 17° (NNE) 1,857 6.7 -13.4°
Sets 21:34:54 0° 14° (NNE) 2,764 7.7 -13.5°
